User: anonymous   Login
Location: Newark
(12.4436°N, 0.6167°W)
Time: 02:09:51
(UTC+00:00)
Language:

deb Explorer IX - Orbit

View from above orbital plane
View from above orbital plane
View from above satellite
View from above satellite

Ground track
Ground track

The orbit data is extracted from the following two-line orbital elements,

1 00085U 61004C   21024.53397928  .00001902  00000-0  40419-3 0  9992
2 00085  38.7772 332.4478 0394574 174.1102 186.4476 14.21573950962558
Epoch (UTC): 24 January 2021 12:48:55
Eccentricity: 0.0394574
inclination: 38.7772°
perigee height: 536 km
apogee height: 1104 km
right ascension of ascending node: 332.4478°
argument of perigee: 174.1102°
revolutions per day: 14.21573950
mean anomaly at epoch: 186.4476°
orbit number at epoch: 96255

The dashed part of the orbit path shows where the satellite is in the earth's shadow,  

DLR